Regional Weather Roundup
Issued by NWS

Home | Current Version | Previous Version | Graphics & Text | Print | Product List | Glossary On
Versions: 1 2 3 4 5 6 7 8 9 10 11 12 13 14 15 16 17 18 19 20 21 22 23 24 25 26 27 28 29 30 31 32 33 34 35 36 37 38 39 40 41 42 43 44 45 46 47 48 49 50
000
ASUS45 KABQ 160001
RWRNM
WEATHER ROUNDUP FOR NEW MEXICO
NATIONAL WEATHER SERVICE ALBUQUERQUE NM
600 PM MDT MON SEP 15 2014

NOTE: "FAIR" MEANS FEW OR NO CLOUDS BELOW 12,000 FEET AGL WITH NO
       SIGNIFICANT WEATHER OR OBSTRUCTIONS TO VISION.

      THIS PRODUCT IS RELEASED AS TWO VERSIONS.  ONE VERSION NEAR
      THE TOP OF THE HOUR CONTAINING PRELIMINARY DATA FROM ALBUQUERQUE
      AND OTHER STATIONS.  A FINAL VERSION WITH ADDITIONAL DATA IS
      ISSUED ABOUT 10 MINUTES AFTER THE HOUR.

NMZ501-503-504-510>518-160100-
NORTHWEST PLATEAU/NORTHCENTRAL MOUNTAINS

CITY           SKY/WX    TMP DP  RH WIND       PRES   REMARKS
FARMINGTON     SUNNY     87  37  17 W10       30.13S
6HR MIN TEMP:  78; 6HR MAX TEMP:  88;

LOS ALAMOS     MOSUNNY   70  43  37 SW7       30.34S
SANTA FE       PTSUNNY   73  43  33 S12       30.27S
6HR MIN TEMP:  72; 6HR MAX TEMP:  85; 6HR PCP: TRACE;

ANGEL FIRE     CLOUDY    62  40  44 NE9       30.47R

$$
NMZ402-403-502-505>509-160100-
WESTCENTRAL MOUNTAINS/SOUTHWEST MOUNTAINS

CITY           SKY/WX    TMP DP  RH WIND       PRES   REMARKS
GALLUP         PTSUNNY   80  40  23 E12       30.21R
6HR MIN TEMP:  77; 6HR MAX TEMP:  85;

GRANTS         PTSUNNY   81  37  21 SE10      30.24S
SILVER CITY    CLOUDY    75  55  50 SE15      30.21R

$$
NMZ407-409-411-412-160100-
SOUTHERN DESERTS

CITY           SKY/WX    TMP DP  RH WIND       PRES   REMARKS
LORDSBURG      FAIR      81  55  41 SE14G20   30.09R
DEMING         CLOUDY    79  58  48 SE13G18   30.12R
6HR MIN TEMP:  78; 6HR MAX TEMP:  82;

LAS CRUCES     CLOUDY    77  58  51 S8        30.16R
HOLLOMAN AFB   PTSUNNY   80  58  48 S16       30.11S
ALAMOGORDO     PTSUNNY   77  59  53 S15       30.13S
T OR C         CLOUDY    82  54  37 S12       30.13R
6HR MIN TEMP:  77; 6HR MAX TEMP:  84;


$$
NMZ519>523-160100-
CENTRAL VALLEYS/CENTRAL HIGHLANDS

CITY           SKY/WX    TMP DP  RH WIND       PRES   REMARKS
ALBUQUERQUE    TSTM      78  57  48 E31G38    30.16R
6HR MIN TEMP:  74; 6HR MAX TEMP:  88; 6HR PCP:  0.01;

DOUBLE EAGLE   PTSUNNY   82  46  28 E24       30.20S
CLINES CORNERS LGT RAIN  68  54  60 E14       30.34R
6HR MIN TEMP:  68; 6HR MAX TEMP:  79; 6HR PCP: TRACE;

BELEN          MOCLDY    85  50  29 SE9       30.15R
6HR MIN TEMP:  75; 6HR MAX TEMP:  87;

SOCORRO        FAIR      85  50  30 S8        30.12S
6HR MIN TEMP:  78; 6HR MAX TEMP:  87;


$$
NMZ524>526-539-540-160100-
SOUTHCENTRAL MOUNTAINS

CITY           SKY/WX    TMP DP  RH WIND       PRES   REMARKS
RUIDOSO        NOT AVBL

$$
NMZ527>531-160100-
NORTHEAST HIGHLANDS/NORTHEAST PLAINS

CITY           SKY/WX    TMP DP  RH WIND       PRES   REMARKS
LAS VEGAS      MOSUNNY   67  52  58 E12       30.36R
6HR MIN TEMP:  67; 6HR MAX TEMP:  76;

RATON          MOSUNNY   70  47  43 NE7       30.31R
6HR MIN TEMP:  70; 6HR MAX TEMP:  77;

CLAYTON        CLOUDY    58  54  86 NE13      30.30S
6HR MIN TEMP:  58; 6HR MAX TEMP:  61;


$$
NMZ532>537-160100-
EASTCENTRAL PLAINS

CITY           SKY/WX    TMP DP  RH WIND       PRES   REMARKS
TUCUMCARI      CLOUDY    71  56  58 NE17      30.23R
6HR MIN TEMP:  71; 6HR MAX TEMP:  82;

CANNON AFB     SUNNY     76  58  53 SE12      30.21R
6HR MIN TEMP:  73; 6HR MAX TEMP:  82;

CLOVIS AIRPORT   N/A     75  57  53 SE12      30.23R

$$
NMZ028-029-538-160100-
SOUTHEAST PLAINS

CITY           SKY/WX    TMP DP  RH WIND       PRES   REMARKS
ROSWELL        PTSUNNY   74  62  66 E7        30.17R
6HR MIN TEMP:  66; 6HR MAX TEMP:  75;

CARLSBAD       CLOUDY    75  69  81 S7        30.14R
6HR MIN TEMP:  70; 6HR MAX TEMP:  76;

HOBBS          CLOUDY    72  64  78 E7        30.20R


$$


USA.gov is the U.S. government's official web portal to all federal, state and local government web resources and services.